Regional Weather Roundup
Issued by NWS

Home | Current Version | Previous Version | Graphics & Text | Print | Product List | Glossary On
Versions: 1 2 3 4 5 6 7 8 9 10 11 12 13 14 15 16 17 18 19 20 21 22 23 24 25 26 27 28 29 30 31 32 33 34 35 36 37 38 39 40 41 42 43 44 45 46 47 48 49 50
000
ASUS44 KMEG 030610
RWRTN
TENNESSEE HOURLY STATE WEATHER ROUNDUP
NATIONAL WEATHER SERVICE MEMPHIS TN
100 AM CDT THU SEP 03 2015

TNZ002-004-019-021-049-052-054-088>092-030700-
WEST TENNESSEE

CITY           SKY/WX    TMP DP  RH WIND       PRES   REMARKS
MEMPHIS INTL   FAIR      76  72  87 CALM      30.02S
NWS MEMPHIS      N/A     72 N/A N/A MISG        N/A
JACKSON        FAIR      70  68  93 CALM      30.02F FOG
DYERSBURG      FAIR      72  72 100 CALM      30.02F
UNION CITY     CLEAR    N/A N/A N/A CALM      30.01S
PARIS          CLEAR     68  66  94 CALM      30.03F
LEXINGTON      CLEAR     70  70 100 N3        30.01F
$$

TNZ008-025-027-028-033-062-065-066-030700-
NORTH MIDDLE TENNESSEE

CITY           SKY/WX    TMP DP  RH WIND       PRES   REMARKS
NASHVILLE      MOCLDY    76  70  82 CALM      30.02S
CLARKSVILLE    FAIR      71  68  90 CALM      30.02S
SMYRNA         FAIR      73  71  93 CALM      30.03S
COOKEVILLE     CLEAR     70  68  94 CALM      30.03F
CROSSVILLE     FAIR      71  68  90 CALM      30.08F
$$

TNZ061-075-076-078-094-096-097-030700-
SOUTH MIDDLE TENNESSEE

CITY           SKY/WX    TMP DP  RH WIND       PRES   REMARKS
FAYETTEVILLE     N/A     73  72  94 CALM      30.03F
TULLAHOMA      CLEAR     72  68  88 CALM      30.05F
WINCHESTER     CLEAR     72  72 100 CALM      30.04F
MCMINNVILLE    CLEAR     72  72 100 CALM      30.05S
COLUMBIA       PTCLDY    73  73 100 CALM      30.02S
SHELBYVILLE    CLEAR     73  72  94 CALM      30.04F
$$

TNZ017-018-042-046-047-030700-
NORTHEAST TENNESSEE

CITY           SKY/WX    TMP DP  RH WIND       PRES   REMARKS
TRI CITIES     FAIR      66  64  93 CALM      30.07F
ELIZABETHTON   CLEAR     63  61  94 CALM      30.08F
$$

TNZ012-013-036-069-073-074-030700-
CENTRAL EAST TENNESSEE

CITY           SKY/WX    TMP DP  RH WIND       PRES   REMARKS
KNOXVILLE      CLOUDY    73  71  93 CALM      30.02F
OAK RIDGE      FAIR      72  70  93 CALM      30.04F
GATLINBURG     CLEAR     72  66  83 CALM      30.03F
MORRISTOWN     CLEAR     72  66  83 CALM      30.06S
$$

TNZ083-085-099-030700-
SOUTHEAST TENNESSEE

CITY           SKY/WX    TMP DP  RH WIND       PRES   REMARKS
CHATTANOOGA    FAIR      75  71  87 N3        30.01F
$$

SKY/WX REPORTED AS FAIR MEANS FEW OR NO CLOUDS BELOW
12 THOUSAND FEET.



USA.gov is the U.S. government's official web portal to all federal, state and local government web resources and services.